Find Starlink 34854

NORAD ID: 65337 Int'l Des: 2025-189 Owner: SPXS Country: US Constellation: starlink operational
LEOCIRCULAR

当前视图

正在加载3D地球...

About Starlink 34854

Starlink 34854 (NORAD 65337) is a starlink constellation satellite (v2 mini) launched Aug 27, 2025 by SPXS of US. It operates in LEO, CIRCULAR orbit with a mass of 575.00 kg.

关于 Starlink 34854

正在加载描述...

即将过境

Passes for default location (London). Set your location on the main map for personalized predictions.

高度历史

Loading altitude history...

两行轨道根数

1 65337U 25189Q 26193.69447074 .00016154 00000-0 53083-3 0 9990
2 65337 53.1597 345.5350 0000699 105.8506 254.2573 15.31721511 50190
Epoch: Jul 12, 2026 • Age: 8 hours

当前状态

高度 471.1 km
远地点 / 近地点 N/A
速度 7.63 km/s
星下点 20.13°N, 59.81°E
发射日期 Aug 27, 2025
运行时间 0.8 years
类型 internet

技术详情

分类 Payload
质量 575.00 kg
干质量 530.00 kg
总质量 575.00 kg
长度 0.30 m
直径 4.10 m
跨度 29.00 m
形状 Box + pan
制造商 SPXS
平台类型 Starlink V2MO
阶段状态 In Orbit
所有者/国家 SPXS/US

Most Searched